Location: Demmingen
(48.6757°N, 10.4375°E)
Time: 23:03:26
(UTC+00:00)

Cosmos 1295 Rocket - Pass Details

Date: 23 May 2024
Orbit: 943 x 993 km, 82.9° (Epoch: 14 June)

Event Time Altitude Azimuth Distance (km) Brightness Sun altitude
Exits shadow 02:32:34 - 190° (S) 3,386 6.8 -7.9°
Reaches altitude 10° 02:34:26 10° 191° (S) 2,676 6.3 -7.7°
Maximum altitude 02:40:34 82° 279° (W) 963 4.5 -6.9°
Drops below altitude 10° 02:46:41 10° 8° (N) 2,674 7.6 -6.2°
Sets 02:49:11 0° 9° (N) 3,622 8.4 -5.9°
